Flag for Congo Dem.Rep. Weather past 2 weeks in Bukavu, Congo Dem.Rep.

Now
64 °F

Passing clouds.


Feels Like: 64 °F
Forecast: 56 / 71 °F
Wind: No wind

Location: Kigali Airport

Current Time: Apr 2, 2015 at 4:20:28 AM

Latest Report: Apr 2, 2015 at 4:00 AM


Visibility: N/A

Pressure: 30.09 "Hg

Humidity: 100%

Dew point: 64 °F

Location of BukavuLocation

Historic Weather in Bukavu — Graph

°F

Bukavu temperature yesterday

Maximum temperature yesterday: 77 °F (at 11:00 AM)
Minimum temperature yesterday: 63 °F (at 5:00 AM)
Average temperature yesterday: 68 °F

Past Weeks' High & Low Weather Summary

 TemperatureHumidityPressure
High88 °F (Mar 20, 3:00 PM)100% (Mar 20, 4:00 AM)30.21 "Hg (Mar 20, 4:00 AM)
Low63 °F (Mar 24, 8:30 AM)43% (Mar 20, 3:00 PM)29.95 "Hg (Mar 18, 3:30 PM)
Average70 °F87%30.10 "Hg
* Reported Mar 18 7:30 AM — Apr 2 3:30 AM, Bukavu, Weather by CustomWeather, © 2015

Note: Actual official high and low records may vary slightly from our data, if they occured in-between our weather recording intervals... More about our weather records

Advertising

Bukavu weather history for previous 24 hours

 ConditionsComfort  
Time TempWeatherWind HumidityBarometerVisibility
3:30 AM
Thu, Apr 2
64 °FPassing clouds.No wind100%30.09 "HgN/A
3:00 AM64 °FPassing clouds.No wind100%30.09 "HgN/A
2:30 AM64 °FPassing clouds.No wind100%30.09 "HgN/A
2:00 AM64 °FPassing clouds.No wind100%30.09 "HgN/A
1:30 AM64 °FPassing clouds.3 mph100%30.12 "HgN/A
1:00 AM64 °FPassing clouds.No wind100%30.12 "HgN/A
12:30 AM64 °FPassing clouds.No wind100%30.12 "HgN/A
12:00 AM66 °FPassing clouds.No wind100%30.15 "HgN/A
11:30 PM
Wed, Apr 1
66 °FPartly cloudy.No wind100%30.15 "HgN/A
11:00 PM66 °FPartly cloudy.3 mph100%30.18 "HgN/A
10:30 PM68 °FPartly cloudy.5 mph100%30.18 "HgN/A
10:00 PM68 °FPartly cloudy.No wind100%30.18 "HgN/A
9:30 PM68 °FPassing clouds.3 mph100%30.18 "HgN/A
9:00 PM68 °FPassing clouds.No wind100%30.15 "HgN/A
8:30 PM68 °FPassing clouds.No wind100%30.15 "HgN/A
8:00 PM68 °FPassing clouds.5 mph100%30.12 "HgN/A
7:30 PM68 °FPassing clouds.3 mph100%30.12 "HgN/A
7:00 PM68 °FPassing clouds.3 mph100%30.09 "HgN/A
6:30 PM70 °FPassing clouds.3 mph94%30.09 "HgN/A
6:00 PM70 °FScattered clouds.5 mph94%30.09 "HgN/A
5:30 PM72 °FScattered clouds.5 mph73%30.07 "HgN/A
5:00 PM72 °FScattered clouds.5 mph83%30.07 "HgN/A
4:30 PM72 °FScattered clouds.5 mph83%30.07 "HgN/A
4:00 PM73 °FPartly sunny.5 mph78%30.07 "HgN/A
3:30 PM73 °FPartly sunny.5 mph89%30.07 "HgN/A
3:00 PM68 °FPartly sunny.5 mph94%30.09 "HgN/A
2:00 PM66 °FLight rain. Partly sunny.7 mph100%30.12 "HgN/A
1:30 PM66 °FThunderstorms. Partly sunny.8 mph100%30.12 "HgN/A
1:00 PM68 °FThunderstorms. Partly sunny.8 mph94%30.15 "HgN/A
12:30 PM73 °FPartly sunny.13 mph78%30.15 "HgN/A
12:00 PM75 °FPartly sunny.5 mph74%30.18 "HgN/A
11:00 AM77 °FBroken clouds.3 mph69%30.21 "HgN/A
10:30 AM75 °FBroken clouds.No wind74%30.21 "HgN/A
10:00 AM72 °FBroken clouds.No wind83%30.21 "HgN/A
9:00 AM70 °FBroken clouds.No wind94%30.21 "Hg6 mi
8:30 AM68 °FBroken clouds.No wind100%30.21 "Hg6 mi
8:00 AM66 °FBroken clouds.No wind100%30.21 "Hg6 mi
7:30 AM64 °FBroken clouds.No wind100%30.18 "Hg6 mi
6:30 AM63 °FScattered clouds.No wind100%30.15 "HgN/A
6:00 AM63 °FScattered clouds.No wind100%30.15 "HgN/A
5:00 AM63 °FPassing clouds.No wind100%30.12 "Hg4 mi
4:30 AM64 °FPassing clouds.No wind100%30.12 "Hg3 mi
4:00 AM64 °FPassing clouds.No wind100%30.12 "Hg3 mi
Weather by CustomWeather, © 2015

See weather overviewHow to use our weather pages